Wind_Speed
19 18 17 17 16 15 14 12 9 8 6 5 6 8 7 6 6 5 4 5 6 7 7 7 7 7 7 8 9 9 10 10 11 12 13 14 15 16 16 16 16 16 15 15 15 14 14 14 15
17 18 18 18 18 17 17 14 10 8 7 5 7 8 7 7 6 6 6 6 7 8 8 8 7 6 5 6 6 7 8 9 10 11 12 13 14 14 13 13 14 14 14 15 15 15 16 17 17
16 18 19 20 20 19 19 15 11 9 6 5 7 7 7 8 8 7 7 7 8 8 8 8 7 7 6 5 4 5 6 7 9 10 11 12 13 13 12 12 12 13 14 15 16 17 18 19 19
17 18 19 20 21 21 20 17 13 10 6 5 6 8 8 7 7 7 7 8 8 9 9 9 9 8 7 5 4 4 4 5 7 8 9 10 10 10 10 10 11 12 13 15 16 18 18 17 16
17 19 19 20 23 23 22 18 14 8 4 3 6 9 8 7 7 7 9 10 10 10 11 11 10 9 8 6 5 5 5 5 5 6 6 7 7 8 8 9 11 12 14 15 16 17 17 16 15
17 18 19 21 25 25 22 16 11 6 1 3 7 9 8 8 8 9 12 12 13 13 13 13 12 11 9 7 6 5 5 5 5 5 5 6 7 8 9 11 12 13 14 15 16 17 18 18 18
16 19 20 24 27 26 23 17 11 6 2 4 8 9 8 8 9 11 13 13 14 15 15 15 13 12 10 7 5 5 5 5 5 5 6 7 8 9 10 11 13 14 15 16 18 19 19 20 19
17 20 24 27 28 27 23 17 14 9 5 6 7 7 6 7 9 10 12 13 15 16 16 16 15 13 11 8 6 5 5 5 5 5 6 7 8 9 11 12 14 15 17 18 19 19 20 19 18
19 22 27 30 30 26 22 20 16 11 8 7 6 5 4 5 7 10 11 12 14 16 16 16 16 14 12 10 8 6 6 5 5 5 6 7 9 10 12 13 15 16 16 17 17 18 18 17 16
21 28 32 31 30 27 24 21 17 13 10 8 6 3 2 4 6 8 10 11 12 15 15 16 16 15 14 12 10 8 6 5 5 5 6 7 8 10 11 12 13 14 14 14 15 15 15 15 16
26 33 33 33 29 27 25 22 19 15 10 8 6 4 1 3 5 7 9 10 11 13 14 16 16 16 15 14 12 11 9 7 6 6 6 8 9 9 10 11 11 12 12 12 13 14 15 15 16
32 35 33 32 29 27 26 23 21 16 12 11 9 7 5 4 6 7 8 10 10 12 13 16 18 17 15 14 14 14 13 11 8 7 7 7 8 8 9 10 11 12 12 12 13 15 16 16 17
35 37 33 31 29 27 26 25 22 17 16 15 11 9 8 7 8 8 8 10 12 14 15 17 19 19 18 16 15 15 15 14 11 8 7 6 6 7 8 9 10 11 11 12 13 15 17 18 19
39 38 35 32 31 29 29 27 23 19 18 17 15 12 11 11 11 11 11 11 13 15 17 18 20 21 21 19 18 17 16 16 14 12 10 9 9 10 11 12 13 13 14 15 16 18 19 20 22
40 38 35 34 33 32 30 28 26 23 21 19 18 16 16 15 15 14 14 14 15 17 18 19 21 21 22 22 20 19 18 18 18 16 15 14 14 15 17 19 20 20 20 20 21 22 23 24 25
39 37 37 36 36 35 31 29 28 26 24 23 22 21 20 20 19 18 17 16 17 18 20 21 22 23 24 24 23 22 21 21 21 21 20 20 20 21 23 25 27 27 27 27 26 26 27 27 28
38 38 37 38 37 37 34 30 30 28 27 27 27 27 26 25 24 21 18 18 18 19 22 24 26 27 27 26 25 24 24 24 26 26 26 26 27 27 28 30 32 34 34 32 31 31 31 31 32
38 38 38 39 40 39 37 32 31 31 31 31 32 32 32 30 28 23 21 20 20 21 24 27 29 30 30 29 28 28 28 28 29 30 31 32 32 32 33 34 35 37 36 34 32 31 32 33 34
39 40 40 39 41 42 41 37 34 35 34 35 35 35 35 34 30 27 25 23 22 23 26 28 30 32 32 31 31 32 32 30 30 31 31 32 34 34 35 35 35 34 31 28 28 29 32 34 37
38 39 38 38 41 45 45 43 39 38 38 37 36 36 35 35 34 31 29 26 25 25 27 29 31 33 33 33 34 34 34 31 30 29 30 30 32 33 33 33 33 30 30 30 32 34 36 37 39
37 36 35 37 41 44 45 45 43 40 39 38 36 35 35 34 34 33 31 28 27 26 27 30 33 35 35 36 36 36 37 35 32 30 26 27 29 29 29 30 32 34 37 37 37 38 39 41 42
33 31 33 36 39 41 43 44 42 40 39 38 37 36 35 34 34 33 32 30 29 28 30 33 36 38 37 38 37 38 39 36 33 28 25 24 25 26 27 31 35 37 38 39 40 42 43 44 45
27 28 31 34 37 39 41 42 40 39 38 37 37 37 36 35 34 34 33 32 32 33 34 37 40 40 39 40 39 39 38 35 32 26 22 21 23 26 30 33 36 39 41 43 44 45 46 47 48
27 30 33 34 36 37 36 39 39 36 36 36 37 38 37 36 35 34 34 35 35 37 39 42 41 40 40 40 39 38 37 33 29 24 23 24 26 30 34 37 40 42 45 47 47 48 49 50 52
32 33 34 34 36 35 32 36 37 34 34 35 35 36 36 36 35 34 35 36 38 40 41 40 39 39 39 40 40 39 36 32 30 27 26 28 31 34 38 41 43 46 49 50 51 52 53 55 58
33 34 35 35 34 31 31 33 32 30 30 32 32 32 32 32 33 34 34 35 36 37 36 35 36 37 38 38 37 36 35 33 31 30 30 32 35 39 43 45 48 50 52 53 55 56 58 61 63
32 33 32 33 32 30 31 31 30 27 26 28 29 29 29 29 29 30 30 30 31 31 32 33 34 35 36 36 37 38 38 34 33 33 34 37 40 44 47 50 52 54 56 58 60 61 64 65 65
33 32 32 32 31 30 31 28 26 25 25 26 27 28 28 28 28 28 29 29 30 30 31 33 35 36 38 38 38 39 39 38 38 38 40 43 46 49 52 54 56 59 60 62 64 66 67 66 65
35 35 34 33 31 29 28 27 25 26 27 28 28 28 28 28 28 29 29 30 32 33 35 36 38 40 41 41 40 39 38 38 40 41 43 47 50 52 54 57 59 62 64 66 67 68 67 65 64
36 37 35 34 32 30 29 28 27 27 28 28 28 28 27 27 27 29 30 32 34 36 38 40 42 43 43 43 42 40 39 41 43 44 46 49 52 54 57 60 62 64 66 67 67 66 65 64 64
Wind_Direction
217 214 215 214 209 210 220 235 254 268 292 335 0 0 2 8 8 7 9 5 357 351 343 330 313 295 279 271 271 277 283 290 295 293 290 287 283 280 280 281 283 284 286 288 289 288 286 284 284
225 221 219 214 209 208 221 234 254 271 292 335 360 1 8 19 25 27 22 14 5 358 350 339 331 324 311 294 284 283 288 295 300 298 296 293 288 283 281 281 282 284 286 287 288 286 286 286 285
233 228 223 215 205 211 227 236 251 268 294 339 360 12 22 26 22 17 15 14 12 8 0 353 350 350 342 327 311 301 300 302 301 299 296 294 291 288 286 286 287 289 290 290 289 288 287 287 286
235 231 226 215 203 212 229 235 247 264 295 342 14 28 31 28 22 16 14 15 13 10 6 3 2 2 356 348 343 339 329 319 308 303 300 297 294 293 293 293 294 293 292 293 294 294 293 292 291
234 228 223 210 200 209 225 232 239 255 280 358 33 44 36 31 27 27 28 23 17 12 9 8 7 4 4 2 1 1 353 340 329 323 318 310 304 302 300 299 298 296 296 298 298 297 297 296 294
231 224 216 202 197 207 219 224 221 221 184 59 57 55 42 34 34 39 38 31 23 17 13 12 9 6 7 12 16 14 4 353 341 332 322 313 307 305 302 301 299 298 297 297 296 295 294 294 294
224 214 202 193 195 204 212 209 205 203 139 85 75 65 49 32 35 37 37 31 25 20 17 15 12 8 5 6 5 1 353 342 331 320 310 301 299 297 295 294 294 293 292 290 290 290 292 294 294
214 205 192 188 195 204 208 205 203 199 156 122 91 68 52 28 27 27 27 26 21 17 17 18 15 12 9 4 356 348 342 334 324 315 307 298 295 293 290 289 290 290 290 289 289 290 292 294 293
207 195 187 191 200 205 204 206 208 204 171 138 107 73 54 14 12 11 13 15 16 14 13 14 12 10 9 5 354 340 330 327 322 315 306 298 291 286 286 287 287 287 287 287 288 290 292 293 293
199 186 191 201 206 208 210 213 213 205 181 151 125 93 36 350 347 350 354 2 7 8 9 8 6 5 3 359 351 338 327 321 316 310 304 297 291 287 286 286 285 284 285 288 291 293 295 295 294
193 192 201 206 210 213 217 219 219 217 199 177 161 160 207 318 333 340 340 342 348 356 3 3 359 356 355 352 348 339 332 322 313 305 298 293 291 289 288 287 286 288 290 293 297 299 299 297 293
195 202 209 212 216 217 221 224 225 227 219 209 195 193 216 264 286 307 319 325 327 338 345 352 351 346 344 341 340 339 335 331 323 313 303 297 294 290 288 291 293 293 295 297 299 298 295 293 290
200 208 213 219 221 223 226 229 234 239 242 233 220 209 221 249 265 279 296 309 314 323 332 339 342 338 335 332 330 330 331 330 328 321 316 313 307 300 299 301 302 302 302 302 301 300 299 299 300
204 213 219 222 224 227 230 235 240 249 255 246 234 228 235 250 260 270 284 297 306 315 323 329 332 330 328 324 320 319 319 320 318 313 308 306 305 304 305 304 302 300 299 299 300 301 304 307 308
210 218 223 225 227 230 234 236 242 250 259 257 248 243 246 254 262 270 279 290 302 311 317 322 324 323 321 317 312 310 308 307 305 302 299 297 296 296 296 295 293 292 291 291 292 294 298 301 304
216 221 225 227 229 232 235 235 241 250 259 258 252 251 254 259 265 268 275 287 298 308 315 317 317 318 316 313 308 304 299 296 293 290 286 285 285 285 286 287 287 287 285 284 285 289 291 293 296
221 223 227 229 232 234 238 237 239 249 258 259 255 254 256 260 264 269 274 283 294 304 310 313 314 315 313 310 306 302 294 288 285 282 279 277 277 278 279 281 283 283 282 281 283 285 288 290 294
226 227 229 230 233 236 241 244 242 246 254 257 257 257 258 261 265 269 270 278 288 297 304 309 312 313 311 308 304 301 294 285 284 280 275 274 274 274 276 280 284 287 284 281 282 286 289 292 295
230 231 231 231 235 239 244 248 248 249 252 255 255 255 257 260 262 263 267 273 282 290 297 303 307 308 306 304 302 297 293 286 285 283 278 275 274 276 279 282 287 288 283 281 284 290 295 297 299
231 232 232 232 234 238 243 248 250 251 253 253 254 256 257 258 258 262 267 272 278 284 290 298 303 302 300 298 296 293 293 289 287 287 283 278 276 278 277 281 285 286 291 297 300 303 304 304 303
231 232 233 231 232 237 242 245 249 250 251 252 256 258 258 256 256 258 263 269 273 279 288 295 298 299 296 294 291 286 287 288 288 287 285 280 276 276 279 286 292 300 306 307 307 308 306 305 304
230 231 232 233 234 237 242 246 247 249 249 251 255 258 257 255 255 257 261 266 272 280 285 291 294 296 293 291 289 285 289 285 289 288 284 280 280 285 291 299 304 307 308 308 309 308 307 306 304
229 229 230 233 236 239 243 249 250 250 250 251 254 258 259 258 257 257 261 267 273 279 284 288 291 292 289 287 288 288 292 292 292 289 285 288 292 298 300 303 306 307 308 308 308 308 308 306 305
222 224 228 232 237 240 243 250 255 255 254 254 255 257 260 261 261 262 265 269 273 277 281 285 286 285 285 286 287 290 291 298 297 293 292 297 300 302 304 307 308 308 308 308 308 308 307 306 305
218 220 226 231 237 241 242 249 254 257 257 257 257 257 259 261 264 265 267 269 271 274 277 279 280 282 285 288 290 293 300 300 293 294 298 302 303 303 305 306 306 307 307 307 306 306 305 305 304
221 223 228 233 238 241 242 248 252 255 255 255 257 258 259 260 261 262 264 266 268 271 273 275 277 281 286 290 294 301 304 301 298 298 300 301 301 302 303 304 305 306 306 305 304 304 304 304 304
221 224 230 237 240 242 243 246 249 250 249 250 252 256 259 261 262 263 263 264 266 269 272 275 279 283 289 294 298 301 301 298 298 298 299 299 299 299 301 302 303 303 303 303 303 303 303 304 304
220 222 227 234 238 241 242 243 247 246 247 249 250 253 258 261 262 264 266 269 272 275 278 280 283 287 291 293 296 298 298 297 296 296 296 297 297 298 299 300 301 302 302 301 301 302 303 304 304
217 222 228 234 239 242 244 245 249 254 254 254 255 257 260 262 264 267 272 276 279 282 285 286 288 289 290 290 292 294 296 298 297 296 295 295 295 297 298 299 299 300 300 300 301 301 302 303 302
222 226 230 237 240 243 248 251 253 259 260 260 261 262 263 264 266 270 274 278 282 285 288 290 290 290 288 288 291 293 294 295 296 295 295 295 296 296 297 297 298 298 298 299 300 301 302 302 303
Height
5876 5879 5881 5884 5887 5888 5888 5890 5892 5894 5894 5894 5893 5892 5891 5892 5892 5893 5892 5890 5889 5888 5887 5887 5887 5887 5887 5887 5887 5887 5888 5888 5888 5889 5889 5890 5891 5891 5891 5892 5892 5893 5893 5894 5895 5895 5896 5897 5897
5874 5876 5879 5882 5884 5886 5886 5888 5891 5892 5893 5893 5892 5891 5891 5890 5890 5890 5889 5889 5888 5887 5886 5886 5886 5885 5885 5885 5885 5885 5886 5886 5886 5886 5887 5887 5888 5889 5889 5890 5890 5891 5891 5892 5892 5893 5893 5894 5895
5871 5874 5877 5879 5882 5884 5885 5888 5890 5891 5892 5892 5891 5890 5890 5889 5889 5889 5889 5889 5888 5887 5886 5886 5885 5884 5884 5884 5884 5884 5884 5884 5884 5884 5884 5885 5886 5886 5887 5887 5888 5889 5889 5889 5890 5890 5890 5891 5891
5869 5872 5874 5877 5880 5882 5883 5887 5889 5891 5892 5892 5890 5890 5890 5890 5890 5890 5890 5889 5888 5888 5887 5886 5884 5883 5883 5882 5882 5882 5882 5882 5882 5882 5882 5883 5884 5884 5884 5885 5886 5886 5886 5886 5886 5886 5887 5888 5888
5867 5869 5872 5874 5878 5880 5881 5885 5888 5890 5891 5891 5890 5889 5890 5891 5891 5891 5890 5890 5889 5888 5887 5886 5884 5883 5882 5881 5881 5881 5881 5881 5881 5880 5881 5881 5882 5882 5882 5883 5883 5884 5883 5883 5883 5883 5884 5885 5885
5865 5867 5870 5873 5875 5878 5880 5884 5887 5889 5890 5889 5889 5889 5891 5892 5892 5892 5891 5890 5889 5888 5887 5885 5884 5882 5881 5881 5880 5880 5880 5880 5879 5879 5879 5880 5880 5881 5881 5881 5881 5881 5881 5880 5880 5880 5880 5881 5882
5863 5865 5868 5870 5873 5876 5879 5882 5885 5887 5888 5889 5888 5889 5890 5892 5893 5892 5892 5891 5889 5888 5886 5885 5883 5882 5881 5880 5880 5880 5879 5879 5879 5879 5879 5879 5879 5879 5880 5880 5879 5879 5878 5878 5877 5877 5877 5877 5877
5861 5865 5866 5868 5871 5873 5877 5881 5883 5885 5886 5887 5887 5888 5890 5892 5892 5892 5891 5890 5889 5888 5886 5884 5883 5882 5881 5880 5879 5879 5879 5878 5878 5878 5878 5878 5878 5878 5878 5878 5877 5877 5876 5875 5875 5874 5873 5873 5873
5860 5864 5865 5866 5868 5872 5876 5879 5881 5883 5884 5886 5886 5887 5889 5891 5891 5891 5891 5890 5889 5888 5886 5884 5883 5882 5880 5879 5879 5878 5877 5877 5877 5877 5876 5876 5876 5876 5876 5875 5875 5874 5873 5872 5871 5871 5870 5870 5869
5858 5861 5862 5864 5867 5871 5874 5877 5880 5881 5882 5883 5885 5886 5888 5889 5890 5890 5890 5889 5888 5887 5886 5884 5883 5882 5881 5879 5878 5877 5876 5876 5875 5875 5875 5874 5874 5873 5873 5872 5872 5871 5870 5869 5868 5868 5867 5867 5866
5857 5859 5859 5862 5865 5868 5871 5875 5878 5879 5881 5882 5883 5885 5887 5888 5889 5889 5889 5888 5888 5887 5885 5884 5883 5882 5881 5880 5878 5877 5876 5875 5874 5873 5872 5872 5871 5871 5870 5869 5869 5868 5867 5866 5865 5865 5865 5864 5864
5855 5855 5857 5859 5863 5866 5869 5872 5875 5878 5880 5880 5881 5883 5886 5887 5888 5888 5888 5887 5887 5886 5885 5884 5883 5882 5881 5880 5878 5877 5875 5874 5873 5871 5870 5869 5869 5868 5867 5867 5866 5865 5864 5863 5863 5862 5861 5861 5860
5853 5853 5855 5858 5860 5864 5867 5870 5872 5876 5877 5877 5879 5881 5884 5886 5886 5887 5887 5886 5885 5884 5883 5882 5882 5881 5880 5879 5877 5875 5874 5872 5871 5869 5868 5867 5867 5866 5865 5864 5863 5862 5861 5860 5859 5858 5857 5856 5855
5849 5850 5852 5855 5858 5861 5864 5866 5870 5872 5874 5875 5876 5879 5881 5883 5885 5885 5885 5884 5883 5882 5882 5881 5879 5879 5878 5877 5875 5873 5871 5870 5868 5867 5866 5865 5864 5864 5863 5861 5860 5859 5858 5857 5855 5854 5852 5851 5850
5844 5847 5851 5854 5856 5858 5861 5864 5867 5869 5871 5872 5873 5875 5878 5880 5882 5882 5882 5881 5881 5880 5879 5878 5877 5875 5874 5873 5872 5870 5868 5866 5865 5864 5863 5862 5861 5860 5859 5857 5855 5854 5852 5851 5850 5849 5847 5846 5844
5840 5844 5848 5851 5853 5855 5859 5862 5865 5866 5867 5868 5870 5872 5874 5876 5878 5879 5879 5878 5878 5877 5876 5875 5874 5872 5870 5869 5867 5865 5863 5861 5860 5858 5857 5856 5856 5855 5853 5851 5849 5847 5846 5844 5843 5842 5840 5839 5838
5836 5840 5843 5848 5849 5851 5854 5858 5861 5862 5863 5864 5865 5867 5869 5871 5873 5874 5875 5874 5874 5874 5872 5871 5869 5867 5865 5864 5863 5861 5859 5856 5854 5852 5851 5850 5849 5847 5846 5844 5842 5840 5838 5837 5835 5834 5833 5831 5830
5833 5836 5839 5843 5845 5847 5849 5853 5857 5857 5858 5859 5861 5862 5864 5866 5868 5870 5870 5870 5870 5870 5869 5867 5865 5862 5860 5858 5857 5855 5852 5850 5847 5845 5843 5842 5841 5839 5837 5835 5833 5831 5830 5829 5828 5827 5826 5824 5822
5827 5830 5834 5839 5841 5842 5844 5847 5851 5851 5853 5854 5855 5857 5858 5861 5863 5864 5865 5866 5866 5866 5865 5863 5860 5857 5854 5852 5850 5847 5843 5841 5840 5837 5835 5833 5832 5830 5828 5826 5825 5823 5822 5822 5821 5820 5818 5817 5814
5820 5824 5830 5835 5837 5837 5838 5840 5844 5846 5847 5848 5850 5851 5853 5855 5856 5858 5859 5861 5861 5861 5860 5858 5855 5852 5849 5846 5843 5839 5836 5833 5832 5829 5827 5826 5824 5822 5821 5819 5818 5816 5815 5813 5812 5812 5810 5808 5805
5813 5818 5823 5827 5828 5829 5831 5834 5838 5841 5841 5843 5844 5845 5846 5848 5850 5852 5853 5855 5855 5855 5854 5852 5850 5847 5843 5840 5835 5831 5828 5825 5823 5822 5821 5819 5817 5815 5814 5813 5810 5809 5807 5806 5804 5803 5801 5798 5795
5807 5812 5814 5817 5820 5822 5823 5825 5831 5834 5836 5837 5838 5838 5840 5842 5844 5846 5847 5848 5849 5849 5848 5846 5843 5841 5837 5833 5829 5825 5819 5815 5814 5814 5813 5812 5810 5808 5807 5806 5804 5802 5800 5798 5795 5793 5790 5787 5785
5802 5804 5806 5809 5811 5815 5816 5819 5824 5827 5830 5832 5832 5832 5833 5835 5837 5839 5841 5842 5842 5842 5841 5839 5837 5834 5831 5826 5822 5817 5813 5809 5807 5806 5805 5805 5803 5802 5801 5799 5797 5795 5792 5789 5786 5783 5780 5777 5773
5794 5796 5799 5801 5805 5809 5813 5814 5817 5821 5823 5824 5825 5825 5826 5828 5830 5832 5834 5834 5835 5834 5833 5832 5829 5826 5822 5817 5812 5808 5805 5802 5800 5799 5798 5798 5797 5796 5794 5792 5790 5787 5783 5780 5776 5773 5769 5765 5761
5787 5790 5793 5796 5799 5804 5808 5809 5811 5814 5815 5816 5818 5819 5820 5821 5823 5825 5826 5827 5827 5826 5825 5824 5821 5817 5814 5809 5804 5801 5797 5795 5794 5793 5792 5791 5790 5789 5787 5785 5782 5778 5774 5770 5766 5762 5758 5753 5748
5783 5786 5790 5793 5796 5800 5802 5803 5806 5808 5809 5809 5811 5812 5813 5815 5816 5817 5818 5819 5819 5818 5817 5815 5812 5810 5806 5802 5798 5795 5793 5791 5788 5787 5785 5785 5783 5782 5779 5776 5772 5768 5764 5760 5756 5751 5747 5741 5736
5779 5782 5786 5789 5791 5794 5796 5798 5800 5802 5803 5804 5805 5806 5807 5809 5810 5810 5811 5811 5811 5811 5809 5807 5805 5802 5799 5795 5793 5790 5787 5784 5781 5780 5779 5777 5776 5773 5770 5766 5762 5758 5754 5749 5744 5739 5734 5728 5722
5775 5778 5781 5783 5785 5788 5790 5792 5795 5796 5797 5799 5800 5802 5803 5804 5804 5805 5805 5804 5804 5803 5801 5800 5797 5794 5792 5788 5785 5782 5780 5777 5775 5773 5771 5769 5767 5764 5760 5756 5752 5747 5742 5737 5731 5726 5720 5714 5708
5770 5773 5775 5778 5780 5783 5785 5790 5789 5790 5792 5793 5795 5797 5798 5799 5799 5799 5798 5797 5796 5795 5793 5792 5789 5787 5784 5781 5778 5775 5772 5770 5767 5765 5763 5760 5757 5753 5749 5744 5740 5735 5729 5724 5718 5712 5706 5700 5694
5763 5766 5770 5773 5775 5778 5780 5785 5784 5785 5786 5787 5789 5790 5791 5792 5792 5791 5791 5790 5788 5787 5785 5784 5781 5779 5776 5773 5770 5767 5764 5762 5759 5756 5753 5749 5745 5741 5736 5732 5727 5721 5716 5710 5704 5698 5692 5686 5679